GW5533 Weather Reports


Display with metric or nautical units.
time (UTC)temp
F
wind
direction
speed
MPH
gust
MPH
rain 1hr
in
rain 24hr
in
rain mn
in
humidity
%
barometer
mb
20260902135016 83 215 4.0 9.0 0.00 0.00 0.00 72 1018.6
20260902134536 83 233 3.0 13.0 0.00 0.00 0.00 73 1018.6
20260902134016 83 265 5.0 13.0 0.00 0.00 0.00 72 1018.7
20260902133516 83 248 4.0 8.0 0.00 0.00 0.00 72 1018.6
20260902133016 83 147 3.0 8.0 0.00 0.00 0.00 73 1018.7
20260902132516 82 174 3.0 8.0 0.00 0.00 0.00 73 1018.6
20260902132037 82 168 4.0 10.0 0.00 0.00 0.00 73 1018.6
20260902131556 82 194 5.0 10.0 0.00 0.00 0.00 73 1018.7
20260902131016 82 240 4.0 11.0 0.00 0.00 0.00 74 1018.7
20260902130516 82 260 5.0 11.0 0.00 0.00 0.00 73 1018.6
20260902130037 82 260 5.0 10.0 0.00 0.00 0.00 73 1018.7
20260902125517 82 251 4.0 8.0 0.00 0.00 0.00 74 1018.8
20260902125016 82 244 2.0 8.0 0.00 0.00 0.00 75 1018.9
20260902124516 81 239 3.0 11.0 0.00 0.00 0.00 76 1018.9
20260902124016 81 260 6.0 11.0 0.00 0.00 0.00 75 1018.9
20260902123516 81 261 6.0 9.0 0.00 0.00 0.00 75 1019.0
20260902123037 81 274 5.0 9.0 0.00 0.00 0.00 76 1019.1
20260902122516 81 263 5.0 9.0 0.00 0.00 0.00 76 1019.1
20260902122016 81 264 5.0 10.0 0.00 0.00 0.00 75 1019.1
20260902121556 81 270 5.0 10.0 0.00 0.00 0.00 75 1019.2
20260902121016 81 220 3.0 9.0 0.00 0.00 0.00 75 1019.2
20260902120516 81 218 5.0 9.0 0.00 0.00 0.00 75 1019.2
20260902120016 81 199 3.0 7.0 0.00 0.00 0.00 75 1019.2
20260902115516 81 247 3.0 7.0 0.00 0.00 0.00 76 1019.1
20260902115017 81 97 2.0 5.0 0.00 0.00 0.00 76 1019.2
20260902114516 81 130 2.0 11.0 0.00 0.00 0.00 76 1019.2
20260902114016 81 268 3.0 11.0 0.00 0.00 0.00 76 1019.2
20260902113516 81 166 2.0 7.0 0.00 0.00 0.00 76 1019.2
20260902113036 81 193 2.0 8.0 0.00 0.00 0.00 75 1019.3
20260902112516 81 167 4.0 8.0 0.00 0.00 0.00 75 1019.3
20260902112016 81 133 2.0 7.0 0.00 0.00 0.00 76 1019.3
20260902111516 81 129 3.0 7.0 0.00 0.00 0.00 76 1019.3
20260902111036 81 129 4.0 10.0 0.00 0.00 0.00 76 1019.3
20260902110517 81 160 4.0 10.0 0.00 0.00 0.00 76 1019.4
20260902110016 81 158 4.0 9.0 0.00 0.00 0.00 76 1019.4
20260902105516 81 163 4.0 9.0 0.00 0.00 0.00 76 1019.3
20260902105016 81 161 4.0 9.0 0.00 0.00 0.00 76 1019.4
20260902104516 81 165 4.0 9.0 0.00 0.00 0.00 75 1019.5
20260902104016 82 152 4.0 9.0 0.00 0.00 0.00 75 1019.5
20260902103516 82 144 5.0 9.0 0.00 0.00 0.00 75 1019.6
20260902103015 82 135 4.0 9.0 0.00 0.00 0.00 75 1019.6
20260902102516 82 140 4.0 9.0 0.00 0.00 0.00 76 1019.6
20260902102016 81 147 4.0 9.0 0.00 0.00 0.00 76 1019.6
20260902101515 81 144 5.0 9.0 0.00 0.00 0.00 76 1019.6
20260902101016 81 159 6.0 9.0 0.00 0.00 0.00 76 1019.6
20260902100515 82 161 5.0 9.0 0.00 0.00 0.00 75 1019.6
20260902100021 82 137 4.0 12.0 0.00 0.00 0.00 75 1019.7
20260902095515 82 150 5.0 12.0 0.00 0.00 0.00 75 1019.7
20260902095036 82 124 5.0 11.0 0.00 0.00 0.00 76 1019.7
20260902094516 81 171 3.0 9.0 0.00 0.00 0.00 76 1019.7
20260902094015 81 184 4.0 10.0 0.00 0.00 0.00 76 1019.7
20260902093516 81 188 3.0 10.0 0.00 0.00 0.00 76 1019.7
20260902093016 80 265 4.0 9.0 0.00 0.00 0.00 76 1019.7
20260902092516 80 207 1.0 8.0 0.00 0.00 0.00 77 1019.7
20260902092015 80 217 4.0 8.0 0.00 0.00 0.00 77 1019.7
20260902091515 79 208 3.0 9.0 0.00 0.00 0.00 77 1019.7
20260902091015 79 253 3.0 9.0 0.00 0.00 0.00 78 1019.7
20260902090515 79 249 3.0 7.0 0.00 0.00 0.00 78 1019.7
20260902090016 79 257 4.0 7.0 0.00 0.00 0.00 78 1019.6
20260902085515 79 239 3.0 6.0 0.00 0.00 0.00 78 1019.6
20260902085015 79 239 3.0 4.0 0.00 0.00 0.00 77 1019.6
20260902084515 79 252 2.0 4.0 0.00 0.00 0.00 77 1019.6
20260902084016 79 271 2.0 4.0 0.00 0.00 0.00 77 1019.5
20260902083516 79 174 1.0 4.0 0.00 0.00 0.00 76 1019.5
20260902083035 79 233 2.0 7.0 0.00 0.00 0.00 76 1019.5
20260902082516 79 245 3.0 7.0 0.00 0.00 0.00 76 1019.4
20260902082015 79 267 2.0 6.0 0.00 0.00 0.00 76 1019.3
20260902081516 79 249 3.0 6.0 0.00 0.00 0.00 75 1019.3
20260902081015 79 263 3.0 7.0 0.00 0.00 0.00 75 1019.2
20260902080515 80 257 4.0 7.0 0.00 0.00 0.00 75 1019.2
20260902080055 80 240 4.0 7.0 0.00 0.00 0.00 74 1019.1
20260902075517 81 250 4.0 7.0 0.00 0.00 0.00 73 1019.1
20260902075035 82 262 4.0 7.0 0.00 0.00 0.00 72 1019.0
20260902074516 81 295 1.0 3.0 0.00 0.00 0.00 71 1018.9
20260902074015 81 77 1.0 4.0 0.00 0.00 0.00 71 1018.9
20260902073535 81 63 2.0 4.0 0.00 0.00 0.00 71 1018.9
20260902073017 80 93 0.0 3.0 0.00 0.00 0.00 71 1018.9
20260902072515 80 106 1.0 4.0 0.00 0.00 0.00 71 1018.8
20260902072035 79 107 2.0 4.0 0.00 0.00 0.00 72 1018.9
20260902071515 79 105 1.0 4.0 0.00 0.00 0.00 72 1018.7
20260902071015 78 82 2.0 4.0 0.00 0.00 0.00 73 1018.8
20260902070515 78 82 2.0 4.0 0.00 0.00 0.00 73 1018.9
20260902070016 78 84 1.0 4.0 0.00 0.00 0.00 74 1018.9
20260902065535 77 108 1.0 4.0 0.00 0.00 0.00 75 1019.0
20260902065015 77 109 2.0 4.0 0.00 0.00 0.00 75 1019.1
20260902064515 76 96 2.0 4.0 0.00 0.00 0.00 76 1019.1
20260902064015 76 100 2.0 4.0 0.00 0.00 0.00 76 1019.1
20260902063515 75 113 2.0 5.0 0.00 0.00 0.00 77 1019.1
20260902063016 75 88 1.0 5.0 0.00 0.00 0.00 77 1019.0
20260902062515 75 83 2.0 6.0 0.00 0.00 0.00 78 1019.0
20260902062015 74 88 2.0 6.0 0.00 0.00 0.00 78 1019.0
20260902061515 74 102 1.0 6.0 0.00 0.00 0.00 78 1019.0
20260902061015 74 82 3.0 7.0 0.00 0.00 0.00 78 1019.0
20260902060515 74 76 3.0 7.0 0.00 0.00 0.00 79 1019.0
20260902060015 73 81 2.0 6.0 0.00 0.00 0.00 79 1019.0
20260902055515 73 78 1.0 3.0 0.00 0.00 0.00 80 1018.9
20260902055015 73 112 1.0 2.0 0.00 0.00 0.00 80 1018.9
20260902054535 72 130 0.0 4.0 0.00 0.00 0.00 80 1018.9
20260902054015 72 73 1.0 4.0 0.00 0.00 0.00 80 1018.8
20260902053515 72 94 1.0 6.0 0.00 0.00 0.00 80 1018.7
20260902053016 72 103 2.0 7.0 0.00 0.00 0.00 80 1018.7
20260902052515 72 91 3.0 7.0 0.00 0.00 0.00 80 1018.7
20260902052015 72 108 2.0 6.0 0.00 0.00 0.00 80 1018.6
20260902051515 71 117 2.0 4.0 0.00 0.00 0.00 80 1018.5
20260902051035 71 101 1.0 5.0 0.00 0.00 0.00 80 1018.6
20260902050515 71 112 2.0 5.0 0.00 0.00 0.00 80 1018.6
20260902045515 71 106 2.0 6.0 0.00 0.00 0.00 80 1018.7
20260902045015 71 103 2.0 6.0 0.00 0.00 0.00 80 1018.6
20260902044515 72 87 2.0 7.0 0.00 0.00 0.00 79 1018.6
20260902044015 72 82 2.0 7.0 0.00 0.00 0.00 79 1018.5
20260902043515 72 80 4.0 7.0 0.00 0.00 0.00 79 1018.5
20260902043015 72 82 2.0 4.0 0.00 0.00 0.00 79 1018.5
20260902042515 72 91 2.0 4.0 0.00 0.00 0.00 79 1018.5
20260902042015 72 79 2.0 4.0 0.00 0.00 0.00 79 1018.5
20260902041515 72 78 2.0 4.0 0.00 0.00 0.00 79 1018.5
20260902041015 72 91 2.0 4.0 0.00 0.00 0.00 79 1018.5
20260902040555 72 79 2.0 4.0 0.00 0.00 0.00 79 1018.4
20260902040015 72 78 2.0 4.0 0.00 0.00 0.00 79 1018.4
20260902035515 72 99 2.0 6.0 0.00 0.00 0.00 78 1018.4
20260902035015 72 106 2.0 6.0 0.00 0.00 0.00 78 1018.4
20260902034515 72 99 2.0 4.0 0.00 0.00 0.00 78 1018.3
20260902034015 72 106 1.0 5.0 0.00 0.00 0.00 78 1018.3
20260902033515 72 84 2.0 5.0 0.00 0.00 0.00 78 1018.3
20260902033015 72 76 2.0 6.0 0.00 0.00 0.00 78 1018.3
20260902032515 72 95 1.0 6.0 0.00 0.00 0.00 78 1018.4
20260902032015 72 92 1.0 4.0 0.00 0.00 0.00 78 1018.5
20260902031515 72 77 1.0 3.0 0.00 0.00 0.00 78 1018.4
20260902031015 72 98 1.0 3.0 0.00 0.00 0.00 78 1018.4
20260902030515 72 116 1.0 3.0 0.00 0.00 0.00 78 1018.4
20260902030035 72 113 0.0 5.0 0.00 0.00 0.00 78 1018.4
20260902025515 72 92 2.0 7.0 0.00 0.00 0.00 78 1018.4
20260902025015 72 86 2.0 7.0 0.00 0.00 0.00 78 1018.4
20260902024515 72 96 1.0 4.0 0.00 0.00 0.00 78 1018.3
20260902024015 72 118 1.0 5.0 0.00 0.00 0.00 78 1018.4
20260902023515 72 85 1.0 5.0 0.00 0.00 0.00 78 1018.4
20260902023015 72 100 2.0 5.0 0.00 0.00 0.00 78 1018.4
20260902022515 72 102 2.0 4.0 0.00 0.00 0.00 78 1018.4
20260902022015 72 98 2.0 4.0 0.00 0.00 0.00 78 1018.4
20260902021515 72 119 1.0 3.0 0.00 0.00 0.00 78 1018.4
20260902021015 72 125 1.0 3.0 0.00 0.00 0.00 78 1018.4
20260902020515 72 114 1.0 4.0 0.00 0.00 0.00 78 1018.5
20260902020015 72 117 2.0 4.0 0.00 0.00 0.00 78 1018.5
20260902015515 72 105 1.0 4.0 0.00 0.00 0.00 78 1018.5
20260902015015 72 102 1.0 7.0 0.00 0.00 0.00 77 1018.5
20260902014515 72 109 3.0 7.0 0.00 0.00 0.00 77 1018.5
20260902014015 72 114 2.0 7.0 0.00 0.00 0.00 77 1018.5
20260902013515 72 80 1.0 3.0 0.00 0.00 0.00 77 1018.4
20260902013035 72 80 1.0 4.0 0.00 0.00 0.00 77 1018.5
20260902012515 72 100 1.0 4.0 0.00 0.00 0.00 77 1018.5
20260902012015 72 131 0.0 2.0 0.00 0.00 0.00 77 1018.4
20260902011515 72 74 0.0 3.0 0.00 0.00 0.00 77 1018.4
20260902011015 72 99 1.0 6.0 0.00 0.00 0.00 77 1018.4
20260902010515 72 91 2.0 6.0 0.00 0.00 0.00 77 1018.3
20260902010015 72 114 2.0 5.0 0.00 0.00 0.00 77 1018.3
20260902005535 73 113 2.0 5.0 0.00 0.00 0.00 77 1018.3
20260902005015 73 111 2.0 4.0 0.00 0.00 0.00 77 1018.3
20260902004515 73 83 1.0 4.0 0.00 0.00 0.00 77 1018.4
20260902004014 73 82 2.0 7.0 0.00 0.00 0.00 76 1018.5
20260902003515 73 75 3.0 7.0 0.00 0.00 0.00 76 1018.5
20260902003015 73 81 3.0 7.0 0.00 0.00 0.00 76 1018.6
20260902002514 73 73 2.0 7.0 0.00 0.00 0.00 76 1018.6
20260902002014 73 87 1.0 4.0 0.00 0.00 0.00 76 1018.6
20260902001515 73 87 2.0 4.0 0.00 0.00 0.00 76 1018.7
20260902001015 73 92 0.0 3.0 0.00 0.00 0.00 76 1018.6
20260902000515 73 119 0.0 3.0 0.00 0.00 0.00 76 1018.6
20260902000014 73 105 2.0 4.0 0.00 0.00 0.00 76 1018.6
20260901235515 73 101 2.0 6.0 0.00 0.00 0.00 77 1018.6
20260901235014 73 112 1.0 6.0 0.00 0.00 0.00 77 1018.6
20260901234514 73 96 2.0 5.0 0.00 0.00 0.00 78 1018.6
20260901234015 73 122 2.0 4.0 0.00 0.00 0.00 78 1018.6
20260901233515 73 122 2.0 4.0 0.00 0.00 0.00 79 1018.6
20260901233014 73 121 1.0 5.0 0.00 0.00 0.00 79 1018.6
20260901232517 73 105 2.0 5.0 0.00 0.00 0.00 79 1018.6
20260901232017 74 106 2.0 5.0 0.00 0.00 0.00 79 1018.7
20260901231516 74 104 2.0 6.0 0.00 0.00 0.00 79 1018.7
20260901231016 74 115 2.0 6.0 0.00 0.00 0.00 78 1018.7
20260901230536 74 89 2.0 5.0 0.00 0.00 0.00 78 1018.7
20260901230017 74 87 2.0 5.0 0.00 0.00 0.00 77 1018.7
20260901225517 74 91 1.0 4.0 0.00 0.00 0.00 77 1018.7
20260901225017 74 88 2.0 4.0 0.00 0.00 0.00 77 1018.8
20260901224517 74 76 2.0 4.0 0.00 0.00 0.00 77 1018.9
20260901224017 74 82 2.0 4.0 0.00 0.00 0.00 77 1018.8
20260901223516 74 114 1.0 4.0 0.00 0.00 0.00 77 1018.8
20260901223016 74 108 1.0 6.0 0.00 0.00 0.00 77 1018.7
20260901222516 74 116 2.0 6.0 0.00 0.00 0.00 77 1018.7
20260901222037 74 111 2.0 5.0 0.00 0.00 0.00 77 1018.7
20260901221517 74 123 2.0 4.0 0.00 0.00 0.00 77 1018.6
20260901221016 74 109 1.0 4.0 0.00 0.00 0.00 77 1018.5
20260901220516 74 103 1.0 4.0 0.00 0.00 0.00 77 1018.4
20260901220016 74 92 2.0 6.0 0.00 0.00 0.00 77 1018.4
20260901215515 74 117 2.0 6.0 0.00 0.00 0.00 77 1018.4
20260901215014 74 115 1.0 4.0 0.00 0.00 0.00 77 1018.4
20260901214535 74 97 2.0 5.0 0.00 0.00 0.00 77 1018.4
20260901214014 74 99 2.0 5.0 0.00 0.00 0.00 78 1018.4
20260901213515 74 101 2.0 6.0 0.00 0.00 0.00 78 1018.5
20260901213014 74 105 2.0 7.0 0.00 0.00 0.00 79 1018.5
20260901212514 74 116 2.0 7.0 0.00 0.00 0.00 79 1018.4
20260901212015 75 96 2.0 7.0 0.00 0.00 0.00 79 1018.4
20260901211534 75 98 2.0 7.0 0.00 0.00 0.00 80 1018.4
20260901211014 75 110 2.0 4.0 0.00 0.00 0.00 80 1018.4
20260901210535 75 125 2.0 4.0 0.00 0.00 0.00 80 1018.4
20260901210016 75 120 1.0 7.0 0.00 0.00 0.00 80 1018.5
20260901205517 75 96 2.0 7.0 0.00 0.00 0.00 80 1018.5
20260901205017 75 132 1.0 4.0 0.00 0.00 0.00 80 1018.5
20260901204518 75 107 1.0 5.0 0.00 0.00 0.00 80 1018.5
20260901204016 75 111 1.0 6.0 0.00 0.00 0.00 80 1018.5
20260901203516 75 131 2.0 6.0 0.00 0.00 0.00 80 1018.6
20260901203017 75 127 1.0 3.0 0.00 0.00 0.00 80 1018.6
20260901202517 75 140 1.0 3.0 0.00 0.00 0.00 80 1018.6
20260901202016 75 119 2.0 4.0 0.00 0.00 0.00 80 1018.5
20260901201557 76 119 2.0 4.0 0.00 0.00 0.00 80 1018.6
20260901201017 76 121 2.0 4.0 0.00 0.00 0.00 80 1018.6
20260901200557 76 130 2.0 4.0 0.00 0.00 0.00 81 1018.6
20260901200016 76 110 1.0 3.0 0.00 0.00 0.00 81 1018.6
20260901195516 76 128 1.0 3.0 0.00 0.00 0.00 82 1018.6
20260901195016 76 129 1.0 4.0 0.00 0.00 0.00 82 1018.5
20260901194517 77 73 1.0 4.0 0.00 0.00 0.00 82 1018.5
20260901194035 77 73 0.0 3.0 0.00 0.00 0.00 82 1018.5
20260901193516 77 83 1.0 5.0 0.00 0.00 0.00 82 1018.4
20260901193017 77 80 1.0 5.0 0.00 0.00 0.00 81 1018.4
20260901192517 77 83 1.0 4.0 0.00 0.00 0.00 81 1018.4
20260901192017 77 70 1.0 4.0 0.00 0.00 0.00 81 1018.4
20260901191536 78 93 0.0 2.0 0.00 0.00 0.00 81 1018.2
20260901191016 78 65 0.0 3.0 0.00 0.00 0.00 81 1018.1
20260901190514 78 70 1.0 3.0 0.00 0.00 0.00 80 1018.0
20260901190016 78 63 1.0 3.0 0.00 0.00 0.00 80 1017.9
20260901185516 78 87 1.0 3.0 0.00 0.00 0.00 80 1017.8
20260901185016 79 89 1.0 3.0 0.00 0.00 0.00 80 1017.8
20260901184516 79 124 1.0 3.0 0.00 0.00 0.00 80 1017.7
20260901184116 79 133 1.0 3.0 0.00 0.00 0.00 80 1017.7
20260901183516 79 0.0 3.0 0.00 0.00 0.00 80 1017.6
20260901183016 79 68 0.0 3.0 0.00 0.00 0.00 79 1017.6
20260901182516 80 116 1.0 3.0 0.00 0.00 0.00 79 1017.6
20260901182016 80 162 0.0 3.0 0.00 0.00 0.00 79 1017.6
20260901181516 80 152 1.0 3.0 0.00 0.00 0.00 78 1017.5
20260901181016 80 0.0 2.0 0.00 0.00 0.00 78 1017.5
20260901180516 80 119 0.0 2.0 0.00 0.00 0.00 78 1017.5
20260901180016 80 121 0.0 2.0 0.00 0.00 0.00 78 1017.4
20260901175516 81 112 0.0 4.0 0.00 0.00 0.00 77 1017.3
20260901175016 81 164 1.0 5.0 0.00 0.00 0.00 77 1017.3
20260901174557 81 177 2.0 5.0 0.00 0.00 0.00 77 1017.3
20260901174018 81 162 1.0 4.0 0.00 0.00 0.00 76 1017.2
20260901173516 81 146 2.0 6.0 0.00 0.00 0.00 76 1017.1
20260901173016 82 117 2.0 6.0 0.00 0.00 0.00 76 1017.1
20260901172516 82 139 1.0 4.0 0.00 0.00 0.00 75 1017.2
20260901172016 82 155 1.0 6.0 0.00 0.00 0.00 75 1017.2
20260901171516 82 180 2.0 7.0 0.00 0.00 0.00 74 1017.2
20260901171017 82 137 3.0 7.0 0.00 0.00 0.00 74 1017.2
20260901170516 82 147 1.0 7.0 0.00 0.00 0.00 73 1017.2
20260901170016 83 138 2.0 7.0 0.00 0.00 0.00 72 1017.3
20260901165516 83 138 2.0 7.0 0.00 0.00 0.00 72 1017.3
20260901165016 83 124 2.0 8.0 0.00 0.00 0.00 72 1017.2
20260901164536 83 128 3.0 8.0 0.00 0.00 0.00 71 1017.3
20260901164016 83 117 3.0 7.0 0.00 0.00 0.00 71 1017.3
20260901163516 83 160 2.0 7.0 0.00 0.00 0.00 70 1017.3
20260901163016 83 127 3.0 7.0 0.00 0.00 0.00 70 1017.3
20260901162516 83 137 3.0 7.0 0.00 0.00 0.00 71 1017.3
20260901162016 83 131 3.0 6.0 0.00 0.00 0.00 72 1017.3
20260901161516 83 138 2.0 7.0 0.00 0.00 0.00 72 1017.3
20260901161017 83 142 3.0 9.0 0.00 0.00 0.00 72 1017.3
20260901160516 83 187 5.0 9.0 0.00 0.00 0.00 71 1017.4
20260901160016 83 193 5.0 9.0 0.00 0.00 0.00 71 1017.3
20260901155516 83 175 2.0 6.0 0.00 0.00 0.00 72 1017.3
20260901155036 82 148 2.0 7.0 0.00 0.00 0.00 73 1017.4
20260901154516 82 163 3.0 7.0 0.00 0.00 0.00 73 1017.4
20260901154016 82 188 3.0 9.0 0.00 0.00 0.00 74 1017.4
20260901153516 82 194 5.0 11.0 0.00 0.00 0.00 73 1017.5
20260901153016 82 182 6.0 11.0 0.00 0.00 0.00 73 1017.6
20260901152516 82 179 7.0 12.0 0.00 0.00 0.00 72 1017.5
20260901152016 83 176 7.0 12.0 0.00 0.00 0.00 71 1017.6
20260901151516 83 183 5.0 10.0 0.00 0.00 0.00 71 1017.6
20260901151016 84 183 6.0 10.0 0.00 0.00 0.00 71 1017.6
20260901150516 84 175 3.0 10.0 0.00 0.00 0.00 71 1017.6
20260901150017 84 175 4.0 10.0 0.00 0.00 0.00 70 1017.6
20260901145516 84 156 4.0 10.0 0.00 0.00 0.00 70 1017.6
20260901145036 84 171 4.0 10.0 0.00 0.00 0.00 71 1017.7
20260901144516 84 157 4.0 10.0 0.00 0.00 0.00 71 1017.7
20260901144016 83 178 3.0 8.0 0.00 0.00 0.00 71 1017.8
20260901143516 83 101 4.0 11.0 0.00 0.00 0.00 71 1017.8
20260901143016 83 167 5.0 16.0 0.00 0.00 0.00 71 1017.9
20260901142516 83 176 6.0 16.0 0.00 0.00 0.00 71 1017.9
20260901142036 83 178 4.0 12.0 0.00 0.00 0.00 72 1018.0
20260901141516 83 180 5.0 11.0 0.00 0.00 0.00 72 1018.0
20260901141036 83 168 6.0 11.0 0.00 0.00 0.00 73 1018.1
20260901140516 83 187 6.0 11.0 0.00 0.00 0.00 72 1018.1
20260901140016 83 69 3.0 10.0 0.00 0.00 0.00 72 1018.1
20260901135516 83 179 4.0 12.0 0.00 0.00 0.00 72 1018.1